Regional Weather Roundup
Issued by NWS

Home | Current Version | Previous Version | Text Only | Print | Product List | Glossary On
Versions: 1 2 3 4 5 6 7 8 9 10 11 12 13 14 15 16 17 18 19 20 21 22 23 24 25 26 27 28 29 30 31 32 33 34 35 36 37 38 39 40 41 42 43 44 45 46 47 48 49 50
000
ASUS43 KLMK 162010
RWRKY
KENTUCKY REGIONAL WEATHER ROUNDUP
NATIONAL WEATHER SERVICE LOUISVILLE KY
400 PM EDT WED APR 16 2014

NOTE "FAIR" INDICATES FEW OR NO CLOUDS BELOW 12,000 FEET
WITH NO SIGNIFICANT WEATHER AND/OR OBSTRUCTIONS TO VISIBILITY.

KYZ001>023-026-027-061>063-070>075-162100-
WESTERN AND SOUTH CENTRAL KENTUCKY

CITY           SKY/WX    TMP DP  RH WIND       PRES   REMARKS
PADUCAH        MOSUNNY   58  26  29 E10G18    30.20F
HENDERSON      SUNNY     52  28  40 SE12      30.24F
OWENSBORO      MOSUNNY   52  24  33 E13       30.25F
HOPKINSVILLE   SUNNY     55  27  33 E10       30.22F
BOWLING GREEN  SUNNY     55  24  30 E13G18    30.25F
GLASGOW        SUNNY     54  23  30 NE8G16    30.25F
$$

KYZ024-025-028>034-038-045-046-053-162100-
NORTH CENTRAL KENTUCKY

CITY           SKY/WX    TMP DP  RH WIND       PRES   REMARKS
LOUISVILLE/SDF PTSUNNY   51  19  28 CALM      30.29F
LOUISVILLE/LOU SUNNY     54  19  25 E8        30.30F
FORT KNOX      SUNNY     52  21  29 SE12      30.25F
$$

KYZ035>037-039>044-047>052-055>060-089>105-162100-
NORTHEAST KENTUCKY

CITY           SKY/WX    TMP DP  RH WIND       PRES   REMARKS
LEXINGTON      SUNNY     52  21  29 SE10G20   30.30F
COVINGTON      PTSUNNY   48  19  31 E9        30.32F
FRANKFORT      SUNNY     51  22  31 E9        30.30F
$$

KYZ054-064>069-076>088-106>120-162100-
SOUTHEAST KENTUCKY

CITY           SKY/WX    TMP DP  RH WIND       PRES   REMARKS
JACKSON        SUNNY     51  18  27 VRB3      30.30F
LONDON         SUNNY     55  21  26 NE7       30.27F
SOMERSET       SUNNY     54  19  26 E3        30.28F
MIDDLESBORO    SUNNY     56  23  27 NE3       30.26F
MONTICELLO     CLEAR     56  24  29 SE7G17    30.27F
$$




USA.gov is the U.S. government's official web portal to all federal, state and local government web resources and services.